Regional Weather Roundup
Issued by NWS

Home | Current Version | Previous Version | Graphics & Text | Print | Product List | Glossary On
Versions: 1 2 3 4 5 6 7 8 9 10 11 12 13 14 15 16 17 18 19 20 21 22 23 24 25 26 27 28 29 30 31 32 33 34 35 36 37 38 39 40 41 42 43 44 45 46 47 48 49 50
000
ASUS43 KLSX 210607
RWRMO

WEATHER SUMMARY FOR MISSOURI
NATIONAL WEATHER SERVICE SPRINGFIELD MO
100 AM CDT SAT OCT 21 2017

NOTE: "FAIR" INDICATES FEW OR NO CLOUDS BELOW 12,000 FEET WITH NO
       SIGNIFICANT WEATHER AND/OR OBSTRUCTIONS TO VISIBILITY.
       CURRENT SKY AND/OR WEATHER CONDITIONS ARE NOT AVAILABLE FOR
       CHILLICOTHE AND FARMINGTON.

MOZ001>031-035>038-043-044-053-054-210700-
...NORTHERN AND WESTERN MISSOURI...

CITY           SKY/WX    TMP DP  RH WIND       PRES   REMARKS
KANSAS CTY INT PTCLDY    66  58  75 S20G29    29.85S
6HR MIN TEMP:  66; 6HR MAX TEMP:  69;

KANSAS C DTWN  CLOUDY    68  58  70 S16G26    29.87S
6HR MIN TEMP:  68; 6HR MAX TEMP:  72;

LEE`S SUMMIT   PTCLDY    64  58  80 S20G29    29.88F
6HR MIN TEMP:  64; 6HR MAX TEMP:  69;

ST JOSEPH      LGT RAIN  68  59  73 S17       29.81F
6HR MIN TEMP:  67; 6HR MAX TEMP:  70; 6HR PCP: TRACE;

CHILLICOTHE      N/A     65  58  78 S9G17     29.91S
6HR MIN TEMP:  63; 6HR MAX TEMP:  68;

KIRKSVILLE     MOCLDY    64  58  80 S13       29.95S
6HR MIN TEMP:  60; 6HR MAX TEMP:  65;


$$
MOZ066>068-077>081-088>096-101>105-210700-
...SOUTHWEST MISSOURI...

CITY           SKY/WX    TMP DP  RH WIND       PRES   REMARKS
SPRINGFIELD    PTCLDY    63  59  87 S18G25    29.97R
6HR MIN TEMP:  63; 6HR MAX TEMP:  68;

JOPLIN         PTCLDY    63  58  83 S12       29.94R
6HR MIN TEMP:  63; 6HR MAX TEMP:  70; 6HR PCP: TRACE;

BRANSON        CLOUDY    63  57  82 SE9       30.02R

$$
MOZ032>034-039>042-045>050-055>058-069>072-210700-
...CENTRAL MISSOURI...

CITY           SKY/WX    TMP DP  RH WIND       PRES   REMARKS
COLUMBIA       MOCLDY    62  55  77 S10       29.98S
6HR MIN TEMP:  62; 6HR MAX TEMP:  67;

JEFFERSON CITY MOCLDY    64  54  69 SE7       29.98S
6HR MIN TEMP:  64; 6HR MAX TEMP:  68;

ROLLA          PTCLDY    63  52  67 S13       30.01F
6HR MIN TEMP:  62; 6HR MAX TEMP:  67;

SEDALIA        MOCLDY    66  60  81 S16       29.95F
6HR MIN TEMP:  65; 6HR MAX TEMP:  67;

WHITEMAN AFB   MOCLDY    64  58  81 S13       29.88S
WARRENSBURG    MOCLDY    63  55  77 SE9G16    29.91S
OSAGE BEACH    CLOUDY    64  56  75 S8        29.99S

$$
MOZ051-052-059>065-210700-
...EAST CENTRAL MISSOURI...

CITY           SKY/WX    TMP DP  RH WIND       PRES   REMARKS
ST LOUIS INTL  CLOUDY    65  52  62 SE7       30.04S
6HR MIN TEMP:  65; 6HR MAX TEMP:  72; 6HR PCP: TRACE;

SPIRIT OF STL  CLOUDY    64  54  69 CALM      30.02S
6HR MIN TEMP:  63; 6HR MAX TEMP:  71;

ST CHARLES     MOCLDY    64  52  64 E12       30.02F
6HR MIN TEMP:  64; 6HR MAX TEMP:  70;


$$
MOZ072>076-082>087-097>100-106>115-210700-
...SOUTH CENTRAL AND SOUTHEAST MISSOURI...

CITY           SKY/WX    TMP DP  RH WIND       PRES   REMARKS
CAPE GIRARDEAU PTCLDY    55  48  77 S6        30.09F
6HR MIN TEMP:  55; 6HR MAX TEMP:  66;

FARMINGTON     CLOUDY    64  51  62 S16G23    30.05F
6HR MIN TEMP:  64; 6HR MAX TEMP:  66;

POPLAR BLUFF   PTCLDY    59  53  80 SE5       30.07F
6HR MIN TEMP:  56; 6HR MAX TEMP:  66;

WEST PLAINS    MOCLDY    63  53  70 SE12      30.06S
6HR MIN TEMP:  63; 6HR MAX TEMP:  68;


$$



USA.gov is the U.S. government's official web portal to all federal, state and local government web resources and services.